Regional Weather Roundup
Issued by NWS Wakefield, VA

Home | Current Version | Previous Version | Graphics & Text | Print | Product List | Glossary On
Versions: 1 2 3 4 5 6 7 8 9 10 11 12 13 14 15 16 17 18 19 20 21 22 23 24 25 26 27 28 29 30 31 32 33 34 35 36 37 38 39 40 41 42 43 44 45 46 47 48 49 50
000
ASUS41 KAKQ 120410
RWRAKQ

REGIONAL WEATHER ROUNDUP
NATIONAL WEATHER SERVICE WAKEFIELD VA
1200 AM EDT SAT JUL 12 2014

Note: "fair" indicates few or no clouds below 12,000 feet with no
significant weather and/or obstructions to visibility. * = Denotes
station may not report precipitation (e.g., rain,snow,etc.),
thunder or fog.

VAZ042-051-052>054-056-120500-
NORTHERN VIRGINIA

CITY           SKY/WX    TMP DP  RH WIND       PRES   REMARKS
WASH NATIONAL  CLOUDY    78  67  68 SE5       30.22R
DULLES         PTCLDY    72  67  84 SE3       30.22R
FORT BELVOIR   CLEAR     70  69  97 CALM      30.22R FOG
QUANTICO       CLEAR     74  70  87 S3        30.22R
FREDERICKSBRG* CLEAR     72  69  91 CALM      30.21R
STAFFORD*      CLEAR     67  67 100 CALM      30.26R FOG
WARRENTON      CLEAR     68  68 100 CALM      30.21S
CULPEPER*      PTCLDY   N/A N/A N/A CALM      30.22R HAZE
MANASSAS*        N/A    N/A N/A N/A MISG        N/A
LEESBURG*      CLEAR     72  70  94 CALM      30.23R
WINCHESTER     CLEAR     66  63  88 CALM      30.22S
$$

VAZ048-049-060>072-079>083-120500-
CENTRAL AND SOUTH CENTRAL VIRGINIA...AND NORTH CENTRAL NORTH CAROLINA

CITY           SKY/WX    TMP DP  RH WIND       PRES   REMARKS
RICHMOND       CLEAR     73  70  90 SE3       30.22R
CHESTERFIELD*  CLEAR     72  61  68 CALM      30.24R
HANOVER        CLEAR     70  67  90 SE3       30.23R
TAPPAHANNOCK*  CLEAR     72  67  83 CALM      30.23R
CHARLOTTSVILLE MOCLDY    72  67  84 CALM      30.22S
ORANGE*        CLOUDY    68  66  94 CALM      30.23S
LOUISA*        PTCLDY    68  66  94 CALM      30.21S
FARMVILLE*     PTCLDY    70  68  94 CALM      30.20R FOG
SOUTH HILL*    CLEAR     70  70 100 CALM      30.27R
ROANOKE RAPIDS CLEAR     64  63  94 CALM      30.21S
RALEIGH        CLEAR     70  67  90 CALM      30.21S
$$

VAZ088>098-120500-
SOUTHEAST VIRGINIA

CITY           SKY/WX    TMP DP  RH WIND       PRES   REMARKS
NORFOLK        CLEAR     73  69  87 CALM      30.21S
VIRGINIA BEACH PTCLDY    71  69  93 SE3       30.20S
NORFOLK NAVAL  CLEAR     73  68  84 CALM      30.22S
WEST POINT*    CLEAR     72  68  88 CALM      30.23S
NEWPORT NEWS   CLEAR     73  68  84 CALM      30.22R
LANGLEY AFB    CLEAR     70  70 100 CALM      30.21R
FORT EUSTIS    NOT AVBL
WILLIAMSBURG*  CLEAR     73  72  94 CALM      30.22S
FRANKLIN*      CLEAR     72 N/A N/A CALM      30.21S
WAKEFIELD      CLEAR     71  68  90 CALM      30.22R FOG
$$

VAZ020-022-025-037-045-120500-
WESTERN AND SOUTHWEST VIRGINIA

CITY           SKY/WX    TMP DP  RH WIND       PRES   REMARKS
STAUNTON*      PTCLDY    68  63  84 CALM      30.26S
HOT SPRINGS VA PTCLDY    64  59  86 S6        30.38R
LYNCHBURG      CLEAR     68  67  96 CALM      30.25R
DANVILLE       CLEAR     71  67  87 CALM      30.22S
MARTINSVILLE   CLEAR     66  66 100 CALM      30.26S
ROANOKE        CLEAR     74  65  73 SE3       30.26S
BLACKSBURG     CLEAR     70  66  88 E3        30.31S
DUBLIN*        CLEAR     70  65  85 CALM      30.30R
MARION*        CLEAR     69  65  89 NE3       30.33R
HILLSVILLE*    CLEAR     66  64  91 SE3       30.31F
RICHLANDS*     CLEAR     74  63  70 SE5       30.30S
WISE*          CLEAR     72  59  64 CALM      30.30S
ABINGDON*      PTCLDY    73  64  71 NE3       30.27R
$$

MDZ021>025-VAZ099-100-120500-
SOUTHERN MARYLAND AND THE DELMARVA PENINSULA

CITY           SKY/WX    TMP DP  RH WIND       PRES   REMARKS
PATUXENT RIVER PTCLDY    73  69  87 S5        30.22R
BAY BRIDGE APT   N/A     73  64  73 E3        30.22R
LEONARDTOWN    CLEAR     72  68  88 MISG      30.24R
DOVER          CLEAR     70  70 100 S5        30.21R
GEORGETOWN     PTCLDY    70  67  90 E8        30.24R
EASTON         CLEAR     71  71 100 CALM      30.26S
CAMBRIDGE      CLEAR     72  68  88 CALM      30.22R
SALISBURY      CLEAR     71  67  87 CALM      30.22R
OCEAN CITY     CLOUDY    70  68  93 CALM      30.22R
WALLOPS ISLAND CLEAR     71  69  93 CALM      30.22R
ACCOMACK*        N/A     66  64  94 CALM      30.22R FOG
$$

NCZ012>017-030>032-120500-
EASTERN NORTH CAROLINA

CITY           SKY/WX    TMP DP  RH WIND       PRES   REMARKS
ELIZABETH CITY CLEAR     70  69  97 CALM      30.21S
AHOSKIE*       CLEAR     71  69  92 CALM      30.21S
EDENTON*       CLEAR     71  70  96 CALM      30.21S
CURRITUCK*     PTCLDY    70  66  87 CALM      30.21S FOG
KILL DEVIL HLS CLEAR     72  71  95 CALM      30.19F FOG
MANTEO         NOT AVBL
CAPE HATTERAS  CLOUDY    76  74  93 E3        30.20S
GOLDSBORO      CLEAR     72  71  98 E2        30.18S
WASHINGTON     CLEAR    N/A N/A N/A NE3       30.21S
GREENVILLE     LGT RAIN  70  70 100 CALM      30.21S VSB 3/4
NEW BERN       PTCLDY    75  71  87 CALM      30.21S
WILMINGTON     CLEAR     76  73  91 CALM      30.20S
$$

VAZ048-120500-
ELSEWHERE

CITY           SKY/WX    TMP DP  RH WIND       PRES   REMARKS
HARRISBURG PA  MOCLDY    75  65  70 CALM      30.20S
BALTIMORE      PTCLDY    73  67  81 CALM      30.21R
ANNAPOLIS      CLEAR     77  69  76 SE8       30.21R
ANDREWS AFB    CLOUDY    73  69  88 SE2       30.22R
WILMINGTON DE  CLOUDY    74  68  81 CALM      30.23R
PHILADELPHIA   MOCLDY    75  61  61 S5        30.23R
WILDWOOD NJ*   CLEAR     64  63  94 CALM      30.24R
ATLANTIC CITY  PTCLDY    67  64  90 CALM      30.23R
HENDERSON NC   CLEAR     72  67  85 CALM      30.22S
GREENSBORO     CLEAR     73  66  78 CALM      30.22R
ROCKY MOUNT    FOG       69  68  96 CALM      30.20S VSB 3/4
FAYETTEVILLE   CLEAR     74  70  87 CALM      30.19S
CHARLOTTE      CLEAR     74  68  81 S3        30.23R
$$

VAZ100-120500-
MARINE

STATION/POSITION TIME  TEMP    WIND        PRES    WAVE   SWELL
                       AIR SEA DIR/SP/G            HT/PER HT/PER
                 (UTC) (F)     (DEG/KT/KT) (MB)    (FT/S) (FT/S)
44066 TX TWR #4  0400   69 70   50/  4/  6 1022.8R   2/ 7   2/ 7
CAPE MAY NJ      0400   67 72     CALM     1023.2R
LEWES DE         0400   70 68   60/  1/  1 1022.7R
15NM E FENWICK I 0400   72 74              1023.1R   2/ 7
OCEAN-CITY-INLET 0400   71 67  140/  2/  4 1022.9R
WACHAPREAGUE VA  0400   71 79   30/  2/  3 1022.8R
THOMAS POINT MD  0400   76 80  130/  7/  8 1023.6R
GOOSES REEF MD   0400   77     160/ 10/ 10 1023.5R
COVE POINT MD    0400   76     210/  8/ 10 1023.0R
SOLOMONS ISLAND  0400      81                N/A
BISHOPS HEAD MD  0400   75 82  150/  9/ 12 1023.2R
PINEY POINT MD   0400          200/  7/  9   N/A
POTOMAC MD       0400   77     180/  6/  8 1022.5R
CAMBRIDGE MD     0400   72 81  200/  1/  5 1022.9R
LEWISETTA VA     0400   74 82  210/  5/  6 1023.0S
RAPPAHANNOCK LGT 0400           90/  5/  6 1023.6R
STINGRAY PT      0400   74     130/  8/ 10 1022.2S
YORK RVR RNG VA  0400   75     140/  5/  6 1022.5R
YORKTOWN VA      0400   74 79  170/  2/  3 1022.8S
JAMESTOWN VA     0400   74     120/  6/  8   N/A
DOMINION TERM VA 0400   75     110/  5/  6 1023.1S
KIPTOPEKE VA     0400      77  100/  2/  3   N/A
CHES BAY BRIDGE  0400   74 73  100/  3/  6 1022.4F
CAPE HENRY VA    0400   74     100/  7/  7 1021.7F
WILLOUBY STN VA  0400   80     140/  5/  6 1022.3S
S CRANEY ISL VA  0400           90/  3/  4 1023.0F
CAPE HENRY BUOY  0400      75                N/A     2/ 6
1ST LANDING BUOY 0400   74     110/  6/  6 1022.6S
CAPE CHARLES BUO 0400      75                N/A     2/ 8
OFFSHORE WE BUOY 0400      75                N/A     2/ 9
64NM E OF VA BCH 0400   74 79   90/  4/  6 1022.3S   2/ 8   2/ 8
DUCK PIER NC     0400   74 73   40/  5/  5 1022.0S
44056 DUCK FRF   0400                        N/A     1/ 9
OREGON INLET NC  0400   73 80   70/  4/  4 1022.5F
HATTERAS NC      0400   76 82   70/  2/  3 1023.0S
DIAMOND SHLS NC  0400          VRB  2/  2  1022.4F   2/ 5   2/ 5
CAPE LOOKOUT NC  0300   79     270/  5/  5 1022.4R
$$


USA.gov is the U.S. government's official web portal to all federal, state and local government web resources and services.